Location: Unspecified
(0.0000°N, 0.0000°E)
Time: 07:43:38
(UTC+00:00)

Vanguard 2 Rocket - Pass Details

Date: 12 October 2022
Orbit: 555 x 3321 km, 32.9° (Epoch: 06 December)

Event Time Altitude Azimuth Distance (km) Brightness Sun altitude
Rises 22:31:16 0° 308° (NW) 7,056 11.6 -69.8°
Enters shadow 22:39:23 - 328° (NNW) 5,769 10.9 -71.6°
Reaches altitude 10° 22:41:50 10° 336° (NNW) 5,427 - -72.2°
Maximum altitude 22:46:33 12° 354° (N) 4,901 - -73.2°
Drops below altitude 10° 22:50:41 10° 12° (NNE) 4,663 - -74.1°
Sets 22:57:34 0° 42° (NE) 4,927 - -75.6°
